Location: Hohe Wand Kleine Kanzel
(47.8330°N, 16.0170°E)
Time: 18:12:02
(UTC+02:00)

Vanguard 3 - Pass Details

Date: 06 August 2021
Orbit: 510 x 3260 km, 33.4° (Epoch: 23 September)

Event Time Altitude Azimuth Distance (km) Brightness Sun altitude
Rises 22:39:24 0° 273° (W) 6,426 12.3 -18.3°
Reaches altitude 10° 22:44:00 10° 264° (W) 5,706 11.8 -18.7°
Maximum altitude 22:58:54 32° 211° (SSW) 4,581 10.7 -20.1°
Enters shadow 23:08:31 22° 173° (S) 5,155 10.6 -20.9°
